Location: *
(51.2167°N, 10.0667°E)
Time: 17:11:28
(UTC+00:00)

Cosmos 1553 Rocket - Pass Details

Date: 12 December 2019
Orbit: 942 x 1007 km, 82.9° (Epoch: 19 January)

Event Time Altitude Azimuth Distance (km) Brightness Sun altitude
Rises 16:41:54 0° 353° (N) 3,718 6.9 -13.1°
Reaches altitude 10° 16:44:36 10° 0° (N) 2,774 6.2 -13.5°
Maximum altitude 16:50:36 41° 70° (ENE) 1,413 4.4 -14.4°
Drops below altitude 10° 16:56:37 10° 140° (SE) 2,780 6.2 -15.3°
Sets 16:59:19 0° 148° (SSE) 3,727 6.9 -15.7°
